This is the latest recevied weather packets stored in our database for station/object RN1M-13. If no packets are shown the sender has not sent any weather packets the latest 10 day(s).
| Time | Temp. | Humidity | Pressure | Rain* | Wind** | Luminosity | Snow |
|---|---|---|---|---|---|---|---|
| 1778108265 | 8.89° C | 99% | 1013.8 hPa | - | - | - | - |
| 1778107368 | 8.89° C | 100% | 1013.6 hPa | - | - | - | - |
| 1778106468 | 8.89° C | 100% | 1013.8 hPa | - | - | - | - |
| 1778105568 | 8.89° C | 92% | 1013.8 hPa | - | - | - | - |
| 1778104668 | 8.89° C | 91% | 1013.6 hPa | - | - | - | - |
| 1778103768 | 8.89° C | 87% | 1013.7 hPa | - | - | - | - |
| 1778102868 | 8.89° C | 85% | 1013.5 hPa | - | - | - | - |
| 1778101968 | 8.89° C | 92% | 1013.3 hPa | - | - | - | - |
| 1778101068 | 8.89° C | 100% | 1013.1 hPa | - | - | - | - |
| 1778100168 | 8.89° C | 100% | 1013.3 hPa | - | - | - | - |
| 1778099268 | 8.89° C | 100% | 1013.3 hPa | - | - | - | - |
| 1778098368 | 8.33° C | 100% | 1013.6 hPa | - | - | - | - |
| 1778097470 | 8.33° C | 100% | 1013.7 hPa | - | - | - | - |
| 1778096574 | 8.33° C | 100% | 1013.6 hPa | - | - | - | - |
| 1778095674 | 8.33° C | 100% | 1013.6 hPa | - | - | - | - |
| 1778094774 | 8.33° C | 98% | 1013.5 hPa | - | - | - | - |
| 1778093874 | 8.33° C | 96% | 1013.6 hPa | - | - | - | - |
| 1778092974 | 8.33° C | 100% | 1013.6 hPa | - | - | - | - |
| 1778092074 | 8.33° C | 100% | 1013.6 hPa | - | - | - | - |
| 1778091173 | 8.33° C | 100% | 1013.6 hPa | - | - | - | - |
| 1778090273 | 8.33° C | 96% | 1013.6 hPa | - | - | - | - |
| 1778089373 | 8.33° C | 98% | 1013.6 hPa | - | - | - | - |
| 1778088473 | 8.89° C | 100% | 1013.6 hPa | - | - | - | - |
| 1778087573 | 8.89° C | 96% | 1013.5 hPa | - | - | - | - |
| 1778086675 | 8.89° C | 90% | 1013.6 hPa | - | - | - | - |
* Rain since midnight (hover to see other rain measurements)
** Current wind speed in m/s (hover to see current wind gust speed)